Location: ???????
(55.4362°N, 38.1183°E)
Time: 18:23:01
(UTC+00:00)

Cosmos 1408 - Pass Details

Date: 17 June 2021
Orbit: 466 x 492 km, 82.6° (Epoch: 29 July)

Event Time Altitude Azimuth Distance (km) Brightness Sun altitude
Exits shadow 23:36:55 - 233° (SW) 1,944 5.0 -6.6°
Reaches altitude 10° 23:37:40 10° 239° (WSW) 1,681 4.8 -6.5°
Maximum altitude 23:40:42 24° 294° (WNW) 1,070 4.3 -6.3°
Drops below altitude 10° 23:43:46 10° 350° (N) 1,700 6.1 -6.1°
Sets 23:46:12 0° 5° (N) 2,590 7.6 -5.9°
